| |
Missouri Department of Transportation

Social Media Facebook Twitter Flickr Instagram YouTube RSS

Current AWOS Information

 
AWOS Home - General Info for all Airports
Current AWOS for all Airports - Current METAR for all Airports
Glossary - Disclaimer - Other Links


MARSHALL--MARSHALL MEMORIAL MUNICIPAL--KMHL
 
Recent AWOS History
 
12/08/16     02:12 PM CST      20:12 GMT
Air Temperature 29°F (-2°C ) 1st Cloud Layer Clear
Dew Point 14°F (-10°C) 2nd Cloud Layer  
Barometric Pressure 30.57 in Hg. 3rd Cloud Layer  
Wind Speed 16 mph (14 knots) Density Altitude  
Peak Wind Gusts 22 mph (20 knots) Variable Wind Directions  
Wind Direction Quadrant(300°) Variable Visibility  
Visibility 10 statute miles  

Thunderstorm and Precipitation Identification: 
Thunderstorm Remarks: 

Current METAR Record: METAR KMHL 082015Z AUTO 29009G20KT 10SM CLR M01/M10 A3057 RMK AO2

 

 

 

About Us
How Do I...
Contact Us
Missouri Department of Transportation
Central Office
105 W. Capitol Avenue
Jefferson City, MO 65102
1-888-ASK-MODOT (275-6636)
1-866-831-6277 (Motor Carrier Services)
Driver's License Offices
horz_bar
| | |
Missouri State Government
© 2013 Missouri Department of Transportation. All Rights Reserved.   Privacy Policy.
 
 
 
 
RSS FeedYoutubeBlogFlickrTwitter Facebook